Погода Богородское

Погода Богородское : погода сейчас, прогноз погоды и архив. Всё, что Вы хотите узнать о погоде Богородское!

Поиск расширенной информации на нашем сайте:

Другие новости

Новости СМИ2

Главная страница сайта

Новости сайта

03.07.2017

Напоминаем, что на нашем специализированном сайте Метеоцентр.Азия вы можете получить высокодетализированные автоматические прогнозы погоды по пунктам России, СНГ и мира в авиационном формате (включающие направление и скорость ветра, видимость, явления погоды, количество и форму облачности, нижнюю и верхнюю границу облачности).


Погода Богородское - сегодня

Время (UTC), дата Ветер
(°,м/с) 
Видим.   Явления Облачность Т
(°С)
Тd
(°С)
f(%) Тe
(°С)
Pmin
(гПа)
dP
(гПа)
Po
(мм)
O2
(г/м3)
Тmin Tmax R s Состояние
почвы
18 15.10.17 140 (ЮВ) 20000 м    10/8 600 м средняя 
[Sc|Ac trans]
-4.2 -7.7 77 -5  1019  -0.3  761  312           
21 15.10.17 130 (ЮВ) 20000 м    8/3 600 м средняя, верхняя 
[Sc|Ac trans|Ci fib]
-4.7 -7.2 83 -6  1019.4  0.4  761  313  -4.8        замёрзшая 
00 16.10.17 080 (В) 20000 м    8/4 600 м средняя 
[Sc|Ac cast]
-0 -6.3 63 +1  1019.4  0.1  761  307           
03 16.10.17 310 (СЗ) 20000 м    8/5 600 м кучево-дожд., средняя, верхняя 
[Cb cap|Ac lent|Ci fib]
+3.7 -10.6 34 +2  1017.8  -1.5  760  303           
06 16.10.17 310 (СЗ) 20000 м    10/4 600 м кучево-дожд., средняя, верхняя 
[Cb cap|Ac lent|Cs]
+2.5 -7.4 48 +2  1018.3  0.4  760  304           
09 16.10.17 330 (СЗ) 20000 м    8/0 средняя 
[Ac As]
+1.7 -8.4 47 +2  1019.2  0.9  761  306    +4.7       
12 16.10.17 060 (СВ) 20000 м    ясно 
-2.9 -8.2 67 -2  1019.3  761  311           
15 16.10.17 130 (ЮВ) 20000 м    ясно 
-4.3 -7.7 77 -6  1018.6  -0.7  761  312           
18 16.10.17 140 (ЮВ) 20000 м    ясно 
-5.6 -8.8 78 -8  1018.3  -0.3  760  314           
21 16.10.17 130 (ЮВ) 20000 м    3/0 средняя 
[Ac As]
-7.7 -9.7 86 -7  1018.4  760  316  -7.7         
00 17.10.17 140 (ЮВ) 20000 м    3/0 средняя 
[Ac lent]
-1 -7.2 63 -2  1018.5  0.3  761  308  -7.9         
03 17.10.17 340 (С) 20000 м    6/6 600 м 
[Sc diur, vesp]
+2.2 -12.4 33 1017.9  -0.6  760  305           
06 17.10.17 320 (СЗ) 20000 м    8/8 600 м 
[Sc]
+1.4 -14.1 30 -1  1018.6  0.7  761  306           
09 17.10.17 330 (СЗ) 20000 м    4/4 600 м 
[Sc]
-0.5 -11.2 44 -2  1020.7  762  309    +2.6       
12 17.10.17 330 (СЗ) 20000 м    ясно 
-0.8 -10.8 47 -3  1021.3  0.6  763  309           
15 17.10.17 350 (С) 2{10}  20000 м    ясно 
-1.1 -10.4 49 -2  1021.6  0.3  763  310           
18 17.10.17 240 (ЮЗ) 20000 м    ясно 
-2.2 -9.3 58 -2  1022.4  0.7  763  311           
21 17.10.17 190 (Ю) 20000 м    9/9 600 м 
[Sc]
-2.1 -8.8 60 -2  1023.4  764  311  -2.6        замёрзшая 
00 18.10.17 340 (С) 20000 м    1/1 600 м 
[Sc]
+0.8 -9.1 47 -1  1024.1  0.8  765  308  -3.2         
03 18.10.17 360 (С) 20000 м    4/4 600 м 
[Cu Sc]
+2.3 -8 46 1023.7  -0.3  764  306           
06 18.10.17 340 (С) 20000 м    8/6 600 м кучево-дожд., средняя 
[Cb cap|Ac trans]
+3.2 -9.2 40 +1  1023.8  -0.1  765  305           
09 18.10.17 140 (ЮВ) 20000 м    1/0 средняя 
[Ac trans]
-1.4 -9 56 -1  1024.4  0.5  765  311    +3.3       
12 18.10.17 150 (ЮВ) 20000 м    ясно 
-4.6 -9.2 70 -4  1024.7  0.3  765  315           
15 18.10.17 110 (В) 20000 м    ясно 
-6.2 -9.5 77 -6  1024.6  0.1  765  316           
18 18.10.17 тихо ()   20000 м    ясно 
-8.3 -10.3 85 -8  1024.8  0.1  765  319           
Время (UTC), дата Ветер
(°,м/с) 
Видим.   Явления Облачность Т
(°С)
Тd
(°С)
f(%) Тe
(°С)
Pmin
(гПа)
dP
(гПа)
Po
(мм)
O2
(г/м3)
Тmin Tmax R s Состояние
почвы

Для получения пояснительной информации подведите курсор к названию столбца.

ПОГОДА Богородское - архив

Всё, что Вы хотите узнать о погоде Богородское - удобно и подробно!

Выберите нужную дату (начиная с 1 января 2015* года) и нажмите кнопку "Найти".
Будут отображены архивные сводки погоды по пункту Богородское, начиная с указанной даты.


Отображать данные в формате CSV (для использования в таблицах Excel)


Внимание! Наш архив погоды предназначен исключительно для личного некоммерческого использования в познавательных целях. Если Вам необходимы официальные справки о состоянии погоды (для производственных, юридических, коммерческих и т.п. целей), обращайтесь в органы Росгидромета.

*Примечание: данная дата относится к архиву по метеостанциям СССР (Россия, СНГ, Балтия).
Архив по метеостанциям Зарубежной Европы и Азии (кроме Китая) хранится 10 дней, по другим регионам земного шара (Китай, Африка, Америка, Австралия, Океания) - 1 день.

Богородское - район местоположения метеостанции


Название, широта, долгота, высота метеостанции:
Богородское 52.4°ш. 140.5°д. 35 м над ур. моря [Российская Федерация]

Дополнительная информация

В oтличие oт бoльшинства пoгoдных сайтoв мы публикуем пoдрoбную метеoинфoрмацию в детальнoм прoфессиoнальнoм фoрмате.

Характеристики температуры и влажнoсти вoздуха измеряются на высoте 2 м в тени вдали oт зданий и деревьев.
Скoрoсть ветра измеряется на высoте 10 м (на урoвне рoста челoвека скoрoсть ветра ниже в 1.5-2 раза). Если метеoстанция нахoдится в гoрoде или в лесу, тo скoрoсть ветра занижена на 2-4 м/с пo сравнению с oткрытым местoм. Скoрoсть ветра над акватoриями крупных рек и oзёр, а также на вершинах хoлмoв на 2-5 м/с выше, чем в oбычных услoвиях.
Атмoсфернoе давление в разных тoчках местнoсти мoжет значительнo oтличаться oт давления на метеoстанции, в зависимoсти oт услoвий рельефа (при пoдъёме на 10 м давление пoнижается примернo на 1 мм рт.ст.).